Retour au catalogue

DELTA 1 DEB

ActifLEO
NORAD 10206·DEBRIS·🇺🇸 United States

Lancé Jul 14, 1977 depuis Cape Canaveral Space Force Station

Loading…

Prochains Passages (prochaines 24 heures)

TLE

FraisSource: Space-Track

Époque: Sep 14, 2026, 10:36 UTC

1 10206U 77065AK  26257.44212832  .00000745  00000-0  51376-3 0  9993
2 10206  29.2046 172.5715 0524849 177.7727 182.5318 13.42377719326656

Suivez DELTA 1 DEB en temps réel avec AllMySat

Download on the App Store